Wind_Speed
13 15 16 16 17 14 14 15 14 15 17 17 18 18 17 17 19 22 23 20 17 17 17 18 22 25 26 28 27 26 31 36 36 32 30 27 24 22 20 19 18 16 14 14 15 16 17 17 16 17 18 19 19 19 18 17 17 17 17 18 19 19 19 20 23 24 22 20 19 17 15 15 14 14 15 17 17 15 14 14 14 13 14 13 13
18 17 17 16 17 16 14 12 10 11 13 13 14 16 17 16 17 20 21 17 15 15 15 19 23 26 28 28 26 26 31 35 35 32 30 26 23 22 21 19 17 16 16 17 17 17 18 19 18 18 19 21 22 22 21 19 19 19 18 18 18 18 18 20 22 24 24 22 20 18 16 16 16 14 13 15 16 16 15 14 13 12 13 14 12
21 22 21 18 17 16 14 12 12 12 11 11 13 16 17 15 14 17 17 14 14 14 15 19 22 26 29 29 26 26 30 32 31 30 28 25 22 20 21 20 18 17 17 18 18 17 18 19 19 19 20 23 24 24 23 22 20 20 19 19 19 19 18 19 20 22 24 23 22 20 18 16 16 15 13 14 16 17 16 14 13 13 13 14 13
23 23 24 22 20 17 14 14 15 15 14 13 14 16 16 15 15 16 16 16 16 16 16 19 21 23 26 26 24 26 28 27 25 25 25 23 19 17 17 17 17 18 20 21 20 19 19 19 19 18 19 21 22 22 20 19 19 19 19 19 19 19 19 19 20 21 22 23 21 20 18 16 16 15 14 14 14 14 15 14 14 14 13 13 13
25 25 25 25 23 20 19 18 17 17 17 16 16 17 16 14 16 16 15 14 14 14 15 17 18 19 20 22 23 24 25 24 22 21 20 20 20 20 19 19 19 21 23 23 23 22 21 21 20 19 18 19 19 19 18 18 18 19 19 19 19 18 18 18 19 19 20 21 21 19 18 17 16 16 15 15 14 13 13 14 14 14 13 13 13
26 25 25 24 23 22 22 23 22 21 21 19 18 19 19 18 18 18 16 11 9 10 12 15 17 17 17 19 21 20 21 24 25 22 20 22 25 25 25 24 25 26 25 22 21 21 21 22 22 21 20 20 20 20 19 19 19 20 20 20 19 18 18 18 18 18 19 21 20 20 20 19 18 17 16 14 14 13 12 13 14 14 13 13 11
27 26 25 23 22 21 22 23 24 24 23 20 19 19 20 20 21 21 21 17 13 11 11 13 18 20 19 19 21 21 22 25 28 27 26 26 27 27 27 29 31 32 31 28 27 26 25 24 24 24 23 23 22 21 20 20 20 21 21 20 20 20 20 19 19 19 19 20 20 20 21 20 19 17 15 14 14 14 13 13 13 12 11 11 12
25 25 25 24 24 24 23 23 24 24 24 22 20 18 18 18 19 20 21 21 21 20 18 18 21 23 24 24 25 26 26 27 28 28 28 28 28 29 31 32 34 34 35 35 33 31 29 27 26 26 26 25 24 23 22 21 21 21 21 21 21 21 21 20 19 19 19 19 19 19 19 20 18 16 15 14 15 14 13 11 11 11 12 13 14
20 20 21 23 25 27 27 27 25 24 23 22 21 20 18 18 18 18 18 18 19 19 19 20 22 24 26 26 27 27 27 27 28 28 29 30 31 32 33 33 36 37 37 37 35 32 29 28 28 29 29 29 29 29 29 28 27 26 24 22 23 24 24 23 22 21 21 21 20 19 19 20 19 17 16 15 15 14 13 12 13 13 14 15 15
17 17 17 19 21 23 24 25 25 23 22 21 20 19 18 18 18 18 17 17 16 15 14 14 15 17 21 24 26 27 28 29 31 33 34 34 34 35 36 38 40 40 38 38 36 34 32 31 32 33 34 35 36 37 38 37 37 35 32 29 27 26 26 26 26 25 25 24 23 22 22 22 20 18 18 16 15 15 15 15 15 14 13 14 15
17 17 18 18 18 17 17 18 19 19 19 20 19 17 18 18 18 18 19 18 18 18 17 17 16 17 19 22 25 28 31 33 33 34 35 34 34 35 36 38 38 38 37 37 37 37 35 34 34 36 37 37 37 38 39 39 38 38 38 36 35 33 31 30 29 27 26 27 26 24 23 23 22 20 20 19 16 16 16 16 16 15 13 13 14
18 19 19 19 18 16 16 15 15 15 16 17 17 17 19 20 19 20 21 21 21 22 22 23 24 25 25 26 27 28 30 32 32 32 32 31 32 33 35 36 36 37 38 37 38 38 36 35 35 35 36 36 35 34 33 34 35 36 36 37 38 38 38 37 35 31 29 28 29 27 24 23 23 22 21 19 17 16 17 17 17 17 16 15 15
19 20 19 19 18 17 17 16 15 15 16 15 14 17 20 21 20 22 23 23 23 23 23 24 24 25 26 27 28 29 30 31 32 32 32 32 31 32 34 36 37 38 39 40 40 40 38 38 39 38 37 35 34 33 31 32 32 33 34 35 37 38 39 41 41 39 36 33 31 30 27 25 24 23 21 19 19 18 19 19 18 18 18 18 17
19 19 19 20 20 19 18 17 16 16 16 16 16 17 19 19 20 21 21 22 22 21 22 22 23 24 25 25 26 27 29 30 30 30 31 31 31 32 35 37 38 40 41 41 41 41 40 39 40 40 37 33 32 31 30 30 30 30 31 34 36 36 37 39 42 43 43 41 38 35 31 28 27 26 23 21 21 22 21 20 20 20 20 19 19
20 20 20 21 21 20 19 17 16 16 16 17 17 17 16 16 17 17 16 17 17 17 18 19 21 23 24 25 26 27 28 29 30 29 29 29 29 31 33 36 38 40 41 42 42 43 43 42 41 41 38 34 32 31 30 31 30 28 29 32 34 33 32 33 36 39 42 44 44 41 37 34 32 30 27 25 24 25 24 22 22 21 21 21 21
21 21 21 21 21 20 19 17 17 16 15 14 14 13 12 13 14 13 13 14 14 15 16 17 18 20 22 23 25 26 26 27 28 30 30 29 29 29 32 34 36 38 39 39 39 39 37 36 35 34 32 30 30 29 29 31 31 29 29 30 32 32 33 32 32 33 35 38 40 39 37 35 34 34 33 30 29 27 25 24 23 21 21 22 23
22 23 22 22 21 21 19 19 17 17 16 15 14 13 13 14 15 15 15 15 16 17 17 18 19 19 21 22 23 24 24 22 24 27 28 28 28 27 27 30 32 33 33 31 30 29 28 27 27 28 27 28 28 27 27 28 29 29 30 31 31 33 35 34 33 34 34 35 37 37 36 34 34 35 35 35 35 32 29 27 24 21 22 23 23
23 24 23 23 22 21 20 20 18 17 17 17 17 15 15 17 17 17 17 18 19 20 20 21 21 21 22 23 23 25 25 23 23 26 27 29 29 25 23 25 28 28 26 25 24 24 25 25 26 27 26 26 25 25 26 27 26 25 26 28 31 33 34 33 33 34 35 36 37 38 38 37 36 37 38 38 38 37 37 35 29 24 24 24 23
25 25 25 23 22 21 20 19 18 18 17 17 17 17 17 17 18 18 19 19 21 22 22 23 24 24 25 26 26 26 27 26 25 26 26 28 29 26 22 24 26 25 24 25 24 25 26 26 26 27 26 25 24 25 26 27 27 24 24 25 28 30 30 30 32 34 34 34 34 35 35 35 35 37 40 42 43 42 43 43 37 30 27 26 24
26 26 24 22 21 21 20 19 17 16 16 16 16 16 17 18 18 19 20 21 22 23 23 25 27 27 27 27 27 27 27 26 25 25 26 27 27 25 23 24 25 24 23 24 24 24 26 25 23 25 26 26 27 27 27 28 28 27 26 25 25 25 24 25 29 32 33 33 32 32 33 33 33 33 32 35 41 45 46 45 42 37 32 28 26
25 24 21 19 19 19 18 17 16 17 18 18 17 17 18 18 19 20 21 22 23 25 26 27 28 28 27 27 27 27 26 26 26 24 24 25 24 23 23 23 24 23 22 23 23 25 25 24 22 23 24 25 26 26 26 27 28 29 29 29 28 26 25 27 29 30 31 33 32 31 31 31 31 30 27 25 29 35 38 40 41 40 37 33 29
22 21 19 18 17 17 16 16 17 19 20 20 19 19 18 18 19 20 21 23 25 27 28 27 27 27 27 26 26 25 23 23 23 22 22 23 23 23 22 23 24 25 25 26 26 25 24 23 22 23 24 25 26 27 27 27 28 29 30 31 32 31 31 33 35 33 32 32 32 31 30 30 28 28 27 26 26 28 30 30 32 36 39 37 34
19 18 18 17 17 16 16 17 18 19 19 19 19 19 19 20 21 22 23 24 26 26 26 26 25 25 24 23 21 20 19 19 20 20 21 22 23 23 23 23 24 25 28 30 29 27 27 25 24 25 28 29 30 31 32 33 33 34 35 37 39 40 39 37 35 34 32 31 31 31 30 29 28 27 26 27 27 27 28 27 26 28 33 36 37
17 16 16 16 16 17 18 18 19 19 18 17 17 18 19 20 21 22 22 23 24 25 23 22 21 21 20 19 18 17 17 18 19 20 21 24 25 25 26 26 27 28 31 34 34 33 33 31 28 30 33 34 35 36 38 40 41 42 43 44 44 44 41 34 29 29 30 30 30 31 30 29 28 27 26 26 26 26 27 28 27 27 29 31 33
17 16 16 16 16 17 18 19 19 18 17 17 16 18 19 20 21 21 21 21 22 21 19 17 17 17 17 17 17 17 18 18 19 19 20 23 25 27 28 28 29 30 32 32 30 29 30 31 31 34 37 38 39 41 42 43 44 45 46 45 45 44 42 34 28 28 29 30 30 31 31 32 30 27 26 26 27 27 26 27 27 28 29 29 28
16 16 16 16 17 18 18 18 16 15 16 17 17 17 19 20 20 20 20 19 17 15 14 15 15 17 18 19 20 21 21 20 20 19 19 19 20 22 24 24 24 25 27 28 26 26 27 27 29 31 33 33 34 34 33 34 36 38 40 40 41 41 38 34 32 31 30 30 31 31 32 32 31 30 29 29 29 28 27 27 28 28 29 29 28
15 15 16 16 17 17 17 16 15 15 16 16 16 17 18 18 18 17 16 14 13 12 14 17 19 20 21 22 21 20 20 19 19 18 18 18 20 21 22 23 22 22 22 22 22 21 22 23 25 27 28 28 29 28 28 28 30 30 30 29 29 30 28 29 31 32 31 31 31 31 31 31 32 33 33 32 32 30 28 28 29 29 28 28 28
15 15 16 16 15 16 16 16 16 17 17 16 16 17 16 14 13 12 11 11 12 14 18 20 20 19 19 19 19 18 19 18 17 18 20 23 26 27 28 29 29 27 25 22 21 22 25 27 28 27 26 25 25 24 24 24 25 25 24 24 25 25 25 26 28 30 30 31 31 32 32 32 33 35 34 33 33 32 30 30 31 31 30 28 28
15 15 15 16 16 17 17 17 17 18 17 16 15 15 14 13 12 10 10 12 13 15 18 19 19 17 18 20 20 21 22 22 20 22 26 28 29 31 32 32 33 32 31 29 29 30 32 31 29 26 23 22 22 23 23 23 23 23 23 23 23 24 24 26 27 28 29 29 31 32 33 33 34 34 33 34 34 32 31 32 33 32 32 31 30
15 15 16 16 15 14 14 13 13 13 12 12 11 11 11 11 10 10 11 13 14 15 17 18 18 19 21 22 21 22 25 26 26 27 28 28 28 28 29 30 31 32 32 32 31 31 29 28 26 24 22 22 23 23 24 23 23 24 23 23 23 23 24 25 26 27 27 28 30 31 32 33 33 32 33 35 36 34 33 34 34 34 34 33 32
15 15 13 13 12 11 10 10 9 8 8 8 8 8 9 8 9 11 14 14 14 15 16 17 17 17 19 20 22 23 25 25 26 27 28 28 28 29 29 30 31 32 32 31 30 28 27 26 26 24 22 23 24 23 23 23 23 23 23 23 23 23 23 24 24 25 26 27 28 29 31 32 32 32 33 34 34 34 35 35 35 36 37 35 34
13 11 10 9 9 9 8 8 7 6 6 7 7 8 9 8 9 12 15 16 16 16 15 15 15 16 17 18 20 23 24 25 26 27 27 27 28 28 29 30 30 30 30 29 30 30 28 26 25 24 23 22 22 22 21 21 22 22 22 22 22 22 23 24 24 24 25 25 26 26 28 29 30 31 32 33 33 36 37 36 36 38 38 37 36
10 8 7 7 6 7 7 6 5 6 6 8 9 9 9 9 10 11 12 15 18 18 16 15 16 17 17 18 19 21 23 25 26 26 26 26 27 27 28 29 29 28 28 28 29 29 27 24 23 23 23 22 22 21 21 21 22 22 23 23 22 22 22 22 23 24 24 24 25 26 26 27 28 29 31 32 33 36 37 35 36 37 38 38 39
7 6 7 6 5 5 6 5 5 7 9 10 10 9 8 9 10 11 11 14 17 18 17 16 16 17 17 17 18 20 21 23 25 26 26 26 26 26 27 28 27 24 21 21 22 22 22 21 21 21 22 23 23 23 22 21 22 23 24 24 24 23 22 22 23 24 24 25 27 27 26 27 28 28 30 31 32 34 35 35 36 37 38 39 39
5 5 8 7 5 5 6 6 6 8 10 9 9 8 8 8 9 10 11 13 16 18 17 16 16 16 18 19 19 19 20 20 21 22 23 24 25 25 25 25 23 20 16 15 17 18 19 20 21 21 21 23 24 24 23 23 23 24 25 25 24 24 23 23 24 25 25 26 28 28 28 28 28 28 29 29 30 32 33 34 35 36 37 38 39
4 5 7 7 6 6 6 7 7 8 8 8 7 8 9 9 10 11 11 12 14 16 17 18 17 18 19 21 21 21 20 20 19 19 19 19 20 21 22 22 21 19 17 16 16 18 19 21 23 24 23 24 25 25 26 26 26 25 25 26 26 26 26 25 25 25 26 27 28 30 30 29 29 30 30 30 31 31 32 32 33 34 35 37 37
4 5 6 6 7 7 7 7 7 8 8 8 8 8 9 10 11 12 11 11 12 14 17 18 19 20 21 21 21 22 22 22 22 22 22 21 19 18 18 19 20 20 19 19 18 19 20 21 22 24 25 26 26 26 26 27 28 29 28 28 29 30 30 29 28 28 28 29 30 32 33 32 31 31 31 31 31 32 31 32 32 33 36 37 36
5 7 6 6 6 7 7 7 8 8 9 8 8 9 10 11 11 11 11 12 13 14 15 16 18 21 23 23 23 24 24 24 26 27 27 27 26 24 22 21 20 19 20 20 20 20 21 22 22 22 23 26 27 27 27 27 29 30 31 30 31 31 32 33 33 33 33 33 33 33 34 34 34 33 33 32 32 32 32 32 32 33 35 38 39
6 8 8 7 8 8 8 8 8 8 9 9 10 12 12 12 12 12 12 13 14 14 14 15 16 19 22 23 25 26 27 28 30 32 32 33 32 31 30 29 28 25 22 21 21 21 21 22 22 22 23 24 26 28 29 28 28 30 32 34 35 34 34 35 37 37 37 37 36 35 35 35 35 34 34 34 33 32 32 33 33 33 34 37 40
6 7 8 9 8 8 8 8 9 10 10 11 11 11 11 12 13 13 13 14 16 16 16 15 16 18 21 23 25 28 30 31 33 33 33 34 34 34 34 35 35 33 29 25 23 22 22 23 24 23 23 24 25 26 27 27 28 29 31 33 34 35 36 37 38 39 40 41 40 39 38 37 36 35 35 35 33 31 32 33 33 33 35 36 38
5 6 8 9 9 8 8 9 10 11 12 11 11 11 11 12 13 14 15 16 17 18 18 18 17 19 22 24 26 28 30 32 32 32 33 34 34 36 37 37 38 37 36 33 28 24 23 25 25 23 23 24 24 25 25 26 27 29 30 31 33 35 36 37 37 38 39 41 43 43 43 42 41 38 37 35 33 32 31 31 32 33 34 35 35
6 6 7 8 8 9 9 10 11 11 10 10 10 12 13 13 13 14 16 17 18 19 19 19 20 21 23 25 27 29 30 31 31 31 32 33 34 36 37 38 39 40 40 40 37 29 24 24 24 22 22 24 25 24 25 26 27 29 30 32 33 36 36 35 36 37 37 40 43 45 46 46 46 44 40 36 35 34 33 32 33 33 34 35 36
7 7 8 8 9 10 10 10 9 9 10 11 12 13 14 12 12 14 15 16 18 19 18 19 21 23 24 26 27 28 30 30 30 30 32 33 35 36 37 38 39 41 41 42 41 37 31 26 24 22 21 23 24 23 23 25 25 27 29 31 32 34 34 33 34 34 35 37 41 44 46 47 47 47 43 38 36 37 36 33 33 34 34 35 37
7 7 8 9 10 10 10 10 9 10 12 12 11 12 13 12 12 14 15 17 19 19 18 19 21 24 25 26 28 29 29 30 30 31 32 33 34 35 37 38 39 40 41 42 44 43 39 33 28 24 22 21 21 21 21 22 23 24 27 28 29 31 33 34 35 35 34 36 39 42 45 46 46 47 45 40 37 38 37 34 34 36 36 35 37
7 7 8 8 9 9 9 10 10 11 12 11 10 11 12 12 12 14 16 17 19 20 18 19 21 23 24 26 27 28 30 30 31 32 32 32 33 34 36 37 39 40 42 44 45 45 43 39 34 29 24 21 19 19 20 20 20 22 23 24 26 29 30 30 30 31 33 35 37 41 44 45 45 45 43 39 38 38 36 34 35 37 38 37 38
8 8 7 8 8 9 9 10 11 10 11 11 11 11 12 12 14 15 16 18 20 19 18 19 20 22 23 25 26 28 29 30 31 32 33 33 33 34 35 37 40 41 42 44 46 46 46 44 38 33 27 22 19 20 22 21 19 18 19 20 23 25 24 23 22 24 28 32 35 38 42 44 46 45 43 40 39 38 35 34 35 37 38 40 40
8 9 8 8 8 9 9 11 12 12 11 12 13 13 13 14 15 15 16 18 19 18 17 18 20 21 23 24 26 28 29 30 31 33 34 34 35 35 36 38 39 41 43 45 46 46 47 46 42 37 31 25 22 23 24 22 17 15 15 16 18 20 19 19 19 20 22 26 30 33 37 41 43 44 44 43 40 37 36 37 37 37 38 42 42
8 9 10 10 9 9 9 10 12 12 11 12 14 14 14 14 15 15 16 17 18 18 18 19 21 22 23 25 27 29 30 31 32 34 35 35 36 36 37 38 39 41 43 44 45 47 48 48 46 42 37 31 28 28 27 23 17 14 12 12 15 17 18 18 18 18 19 21 24 28 31 34 36 38 42 44 40 36 38 41 40 38 39 40 42
11 11 12 12 11 11 11 11 12 12 12 12 12 14 14 14 15 17 17 17 17 19 20 20 22 24 25 26 28 30 31 32 34 34 35 36 37 37 38 39 39 40 42 44 46 47 49 50 48 45 42 39 36 33 30 24 18 14 11 10 12 15 16 16 16 16 18 21 23 24 27 30 31 33 37 41 40 38 39 41 39 38 39 38 38
15 15 15 14 14 14 13 13 13 14 15 14 13 14 15 15 15 17 19 19 18 20 22 22 23 25 25 26 28 30 31 33 34 35 36 37 37 38 39 39 40 41 42 44 46 47 49 50 50 48 46 45 43 39 33 27 21 16 12 8 9 12 14 15 14 14 16 19 22 24 26 28 30 30 33 37 39 39 40 41 37 35 37 38 38
16 16 16 16 16 16 15 15 15 15 16 16 15 14 16 16 16 17 20 20 20 22 23 23 24 26 26 27 28 30 32 33 34 35 37 38 38 39 40 41 42 43 44 44 46 47 48 51 52 51 48 48 48 45 39 32 26 20 14 8 7 9 11 12 12 13 14 16 20 24 26 28 30 30 30 34 36 37 38 40 38 34 35 38 40
Wind_Direction
353 350 347 339 333 330 327 323 314 309 305 296 289 287 283 277 274 277 283 290 294 289 277 255 234 225 229 230 226 225 225 227 229 231 232 234 234 233 235 238 242 244 248 257 269 277 281 282 283 287 293 295 294 291 286 279 275 272 269 266 262 259 258 261 268 274 278 278 279 281 283 286 289 290 293 298 299 298 300 303 304 302 296 294 297
17 15 9 0 351 344 335 327 315 308 308 301 293 288 282 274 270 276 283 283 281 279 270 254 243 240 238 230 222 224 228 230 232 234 234 234 233 235 239 241 243 247 255 265 270 271 273 275 277 280 285 291 294 294 291 283 276 271 268 266 262 259 257 258 265 271 276 278 278 280 280 282 284 286 288 291 293 294 296 300 301 294 289 287 289
19 19 20 17 9 358 345 335 327 318 310 304 305 301 291 280 275 278 279 274 269 265 257 251 248 245 239 230 225 227 229 230 232 233 233 232 232 238 244 247 248 252 259 266 268 267 265 266 269 274 282 290 294 295 292 286 277 270 266 262 260 259 256 256 260 267 272 276 278 279 280 280 280 282 282 283 287 293 296 295 291 286 287 285 281
16 16 17 18 17 11 358 347 340 332 322 313 312 310 301 289 282 279 277 275 274 268 257 252 249 244 238 234 230 228 228 228 228 231 234 234 232 233 239 244 249 257 265 267 265 263 260 260 261 264 272 283 288 288 284 277 271 268 265 262 261 260 257 255 257 261 268 272 274 276 278 278 277 278 281 282 283 288 291 291 289 289 290 285 278
10 10 10 12 14 13 8 2 356 348 340 329 317 311 305 294 287 284 281 280 279 272 262 254 248 241 236 237 233 227 226 225 224 230 234 232 231 232 235 241 251 261 266 267 264 260 259 259 260 260 264 271 277 277 272 268 266 265 264 263 261 260 259 257 256 258 262 268 271 273 276 276 276 277 278 279 279 280 285 287 287 287 289 287 280
2 2 2 3 4 4 4 2 359 356 352 343 331 321 312 301 294 289 285 280 275 269 264 258 250 237 229 233 231 226 227 227 226 227 225 228 236 241 244 251 259 262 261 260 260 259 261 262 260 259 260 265 270 270 267 265 264 263 263 262 260 259 258 257 257 257 259 263 267 271 273 274 274 275 275 275 275 275 278 282 284 285 287 286 280
354 353 353 354 353 351 350 349 349 350 350 348 343 334 324 315 306 297 291 286 277 266 255 253 250 242 234 234 232 228 229 232 234 234 233 239 247 251 257 263 266 265 262 259 259 262 264 264 261 259 261 267 270 267 264 264 264 263 261 260 260 259 258 257 257 257 259 262 265 267 270 272 271 272 271 270 270 272 274 277 282 285 281 276 277
348 346 345 343 340 339 338 338 338 339 339 339 338 337 332 325 317 308 300 293 285 275 264 260 259 253 245 242 242 242 241 244 248 250 251 254 256 259 264 265 266 267 265 262 265 269 269 265 261 259 263 268 268 265 263 263 262 262 260 260 262 261 259 259 258 258 259 262 264 265 268 271 271 269 269 268 269 271 271 269 271 275 276 276 279
341 340 340 336 334 333 333 333 333 332 331 330 329 330 329 326 322 315 306 299 292 286 279 273 268 263 257 254 255 255 254 255 260 265 266 264 263 264 265 263 265 267 264 263 266 270 268 264 261 263 267 270 271 271 270 267 263 260 257 257 259 260 260 259 258 260 262 263 264 265 266 268 270 270 269 266 267 269 269 267 267 271 277 280 279
331 331 331 328 328 329 328 329 329 327 325 323 322 323 322 320 318 311 304 298 291 286 281 274 268 264 259 255 256 258 260 262 264 267 268 267 266 266 265 264 265 265 263 263 266 269 269 267 267 270 272 275 277 277 277 273 267 263 260 256 254 254 256 257 256 257 259 261 262 263 264 265 266 267 268 267 267 269 270 270 270 273 276 278 279
319 319 320 320 320 320 318 319 320 318 317 316 315 313 310 309 307 301 296 292 286 279 275 271 269 266 259 255 256 257 259 261 263 264 264 263 262 261 261 260 261 262 265 267 268 270 271 270 271 274 276 277 278 278 279 275 269 264 261 258 254 251 250 252 253 255 256 258 259 259 259 261 262 263 265 266 267 269 270 270 270 271 272 273 276
310 311 314 314 314 313 309 307 308 307 307 308 305 300 299 300 298 295 291 289 286 283 279 278 277 275 272 269 268 266 265 265 264 264 263 261 260 260 260 261 262 264 267 269 270 270 270 269 271 273 274 274 272 271 272 271 267 266 263 258 255 252 250 249 249 250 252 254 257 256 255 258 260 259 259 261 263 266 268 268 268 267 266 266 269
305 306 308 308 308 307 304 301 299 298 298 297 295 294 293 290 288 288 288 287 287 285 283 281 280 280 278 277 276 276 275 273 270 269 267 266 266 266 265 266 266 266 267 268 269 269 269 270 271 271 270 269 268 266 264 262 263 266 266 262 257 253 250 249 248 249 250 251 254 255 255 255 257 255 254 256 260 263 264 265 264 263 262 262 264
299 300 301 303 303 302 300 299 296 295 294 291 293 297 296 292 291 290 290 291 292 291 290 289 289 289 288 287 285 284 283 281 279 278 276 275 274 273 271 270 270 269 268 268 267 268 269 269 270 270 268 264 262 261 259 258 258 260 262 263 261 257 254 250 248 248 248 248 250 253 254 254 254 254 252 253 256 257 258 260 261 261 261 262 263
295 296 297 298 298 298 297 296 294 294 294 294 297 301 299 297 298 298 297 297 297 297 297 297 298 299 299 298 297 295 293 291 289 287 284 283 280 277 275 273 272 272 271 270 271 271 271 271 270 268 265 261 259 257 256 255 255 255 255 256 257 257 254 251 248 247 247 247 250 253 254 253 253 253 251 250 252 254 253 255 259 261 262 262 263
292 292 293 293 295 294 293 293 293 294 294 293 295 297 295 298 302 301 299 300 300 301 301 301 300 300 300 300 300 299 297 296 294 292 288 284 280 277 277 277 276 276 276 275 274 273 272 270 268 266 264 262 261 259 256 252 250 251 253 253 252 252 251 250 250 249 248 248 251 253 253 252 252 252 249 246 246 248 250 253 256 259 260 259 260
290 290 289 289 289 287 286 290 293 293 293 293 292 292 293 297 299 298 297 298 299 299 300 300 299 298 298 298 297 297 295 293 292 291 288 285 282 279 279 280 280 278 277 275 273 270 267 264 262 262 262 262 261 258 257 254 250 251 253 252 252 252 251 251 251 250 250 250 250 251 252 252 251 250 248 245 242 241 243 246 250 256 258 256 255
290 289 287 286 285 282 283 288 289 287 289 291 290 290 291 293 293 292 293 295 297 298 298 297 296 295 295 294 292 292 291 289 287 286 285 286 285 282 278 277 275 273 272 270 267 265 263 260 259 259 259 259 258 254 253 253 252 253 253 252 252 252 252 253 252 251 251 251 251 251 251 250 249 249 249 248 244 241 240 244 249 254 254 252 252
291 291 288 284 281 279 283 286 285 282 282 284 284 285 288 289 289 290 292 295 296 297 297 296 295 294 293 293 290 289 289 288 284 282 280 279 281 281 276 272 271 270 268 268 266 265 264 263 261 261 260 260 257 254 252 252 252 252 252 251 251 252 253 254 254 254 254 253 253 253 251 249 249 250 252 251 247 243 242 245 250 250 247 246 246
295 294 290 282 278 279 283 284 281 277 278 279 278 279 283 286 289 292 294 296 296 296 296 295 295 294 293 292 290 288 287 285 282 280 278 276 277 278 274 268 267 267 265 266 266 266 264 263 262 262 262 261 260 257 256 255 254 254 253 251 252 253 255 254 252 252 253 253 254 256 255 252 251 253 254 251 248 246 244 246 248 245 241 239 240
297 294 290 284 280 280 281 280 276 274 274 275 274 276 281 285 290 293 294 295 295 295 296 296 295 294 293 291 289 287 286 283 281 280 279 277 279 279 274 268 266 266 265 265 266 266 266 266 266 265 263 264 265 264 262 259 257 255 254 254 254 254 256 255 251 249 249 248 248 251 252 251 251 251 251 249 247 246 245 244 243 242 238 234 233
296 292 289 285 282 282 280 278 275 274 275 274 274 276 281 286 289 291 293 296 296 296 297 296 294 293 293 291 288 287 286 284 283 282 281 279 279 279 275 269 267 266 266 267 268 270 271 270 271 271 270 268 267 264 262 260 258 255 254 255 256 256 258 259 257 255 254 251 248 247 246 246 246 245 246 245 243 242 243 241 240 240 239 235 231
297 292 288 285 285 287 285 282 281 282 282 280 277 278 282 287 292 295 297 298 297 297 296 295 293 293 292 291 290 289 289 288 287 287 287 285 282 279 277 274 271 269 269 270 272 273 273 271 271 271 270 268 265 262 262 262 262 261 261 261 261 262 262 260 257 256 256 254 251 248 245 244 243 241 241 242 241 239 239 239 238 238 239 238 235
300 296 293 292 291 290 289 288 289 290 288 284 281 283 286 292 297 299 299 298 296 295 294 293 293 292 291 292 294 292 291 290 290 290 289 287 283 280 278 277 275 274 273 273 273 274 273 270 266 262 260 259 258 258 259 261 261 261 262 262 262 262 261 257 254 253 252 251 251 249 247 245 244 241 239 239 240 239 238 237 237 237 238 240 239
305 303 301 299 296 294 294 295 296 294 292 289 289 290 293 299 302 301 298 296 294 293 292 292 293 293 293 294 294 292 292 291 289 286 284 282 281 280 279 278 277 276 275 274 275 276 273 269 267 264 262 261 260 259 259 260 261 260 260 259 259 258 257 254 250 248 247 246 246 245 245 245 243 240 238 237 238 239 238 237 237 239 241 241 239
312 310 308 306 306 306 307 306 302 298 297 297 295 296 300 303 303 299 296 295 295 293 292 293 293 293 294 293 293 293 293 291 290 290 288 287 284 281 279 279 278 277 277 279 283 285 283 279 277 274 271 269 266 264 263 261 259 258 258 257 256 255 253 250 246 243 241 241 241 241 241 241 240 239 238 237 236 237 237 237 237 238 240 242 240
315 314 312 312 312 311 308 304 299 297 298 299 298 301 304 303 299 297 297 297 297 295 293 295 295 296 297 297 297 297 296 295 296 297 292 284 277 274 272 272 274 278 282 285 287 287 285 281 277 275 273 270 269 268 267 263 258 256 255 254 252 249 246 243 241 240 239 239 239 239 239 239 238 237 237 236 235 235 234 235 237 237 238 240 240
311 312 313 314 312 309 306 302 300 300 301 301 302 303 303 300 297 298 299 300 300 299 299 300 301 301 301 301 301 301 299 298 298 292 284 279 278 279 278 277 278 280 283 282 279 276 274 272 271 272 271 270 269 268 266 263 260 256 254 251 248 245 243 241 239 237 237 237 236 237 237 237 236 236 234 233 233 232 231 232 235 237 236 236 238
315 317 318 317 314 312 309 304 301 300 299 298 299 298 294 295 301 306 310 314 314 312 310 309 306 305 303 302 302 301 298 299 297 291 288 287 287 287 286 284 283 283 283 282 280 278 278 277 275 274 271 268 266 263 261 260 258 256 252 248 245 243 241 239 237 235 235 234 234 234 234 234 235 233 232 232 232 231 231 231 233 235 234 233 235
321 319 318 316 314 314 313 310 308 306 303 299 295 293 292 300 315 326 331 335 333 326 320 316 311 309 309 308 306 302 300 301 301 300 299 299 296 294 292 291 289 288 288 288 285 282 280 278 275 272 268 266 265 263 261 260 258 256 253 249 246 243 240 238 236 235 234 233 233 233 233 233 233 232 230 231 231 230 231 231 231 232 232 231 232
320 319 319 317 316 320 322 320 320 321 314 302 300 308 316 325 338 339 339 345 346 337 328 322 317 312 310 311 311 308 306 305 304 304 304 303 301 299 297 295 294 293 293 292 286 281 279 277 275 272 268 266 265 263 262 261 258 256 254 251 248 245 241 239 236 234 234 233 233 233 233 232 232 231 230 231 230 230 230 230 229 229 230 230 231
319 319 322 321 321 325 327 325 326 329 324 319 326 338 341 340 343 341 338 342 348 346 336 327 322 319 319 319 319 318 316 312 307 306 306 304 303 302 301 300 299 298 297 292 285 282 280 278 275 273 269 267 265 263 262 261 259 257 256 253 250 247 243 241 238 235 234 234 233 233 233 232 232 231 230 229 229 230 230 229 228 229 228 229 230
321 323 327 328 330 332 335 338 340 344 351 353 354 358 353 340 340 342 336 335 343 350 348 341 337 337 337 335 332 328 323 318 314 311 309 307 306 307 306 306 305 304 301 294 287 284 282 279 275 273 270 267 265 263 261 259 258 259 259 258 255 252 248 244 241 238 236 234 233 232 231 230 230 230 229 228 228 229 229 228 228 228 227 227 228
331 334 340 349 353 345 346 350 345 348 359 1 357 354 348 336 335 337 335 338 347 354 357 353 349 348 348 348 345 339 332 327 323 317 313 310 309 308 309 310 312 312 305 293 285 282 280 278 276 274 271 269 268 266 263 260 258 257 257 257 256 255 252 248 243 240 237 234 233 231 229 228 227 227 227 226 226 226 227 227 227 227 225 225 226
355 347 349 1 8 353 347 352 346 341 346 349 344 336 330 329 332 333 334 343 352 357 359 357 353 353 356 359 359 356 350 344 336 326 318 313 311 311 312 314 316 314 304 291 284 281 280 279 278 275 272 272 271 268 265 263 262 259 256 254 253 251 248 244 241 239 238 235 233 230 227 226 225 224 224 224 223 224 225 225 226 226 225 224 224
11 354 352 358 0 351 345 348 343 337 340 344 337 326 322 327 334 336 335 337 343 351 357 356 354 358 2 3 3 3 0 358 354 348 339 329 322 318 316 315 315 313 306 298 291 286 283 282 279 276 273 271 269 268 265 263 262 260 257 255 252 249 247 242 238 236 236 235 233 229 226 224 223 223 223 222 222 223 223 224 224 224 223 223 222
11 8 1 357 358 358 353 350 345 346 355 356 343 334 335 338 340 341 340 336 339 349 355 355 355 359 2 3 3 3 3 4 6 6 4 1 354 344 333 324 319 315 309 304 300 296 292 289 283 278 274 271 269 268 266 264 263 261 259 256 253 249 247 243 239 236 234 233 232 229 225 223 223 222 221 222 222 222 222 223 224 223 222 222 222
7 7 10 17 21 14 2 355 353 357 3 2 355 358 2 359 354 352 349 345 347 353 355 355 359 3 2 2 3 5 7 10 13 15 15 15 14 11 6 356 344 331 319 313 308 303 298 294 289 283 278 275 272 270 268 266 265 263 260 257 254 250 247 244 242 239 237 234 232 230 225 222 221 220 220 220 222 222 222 222 222 223 222 221 220
9 3 10 26 31 22 11 7 7 10 13 14 15 15 14 9 8 8 3 359 2 4 360 357 360 3 3 2 3 6 11 15 17 17 17 17 17 16 14 9 3 354 342 330 321 313 306 301 295 288 283 279 276 274 271 269 267 264 262 260 258 255 251 247 244 242 239 235 232 230 226 222 218 217 219 220 221 221 221 221 222 223 222 220 219
15 5 12 26 30 22 14 15 19 21 23 23 20 15 12 15 19 19 14 11 11 12 9 4 1 2 5 6 7 10 13 16 16 15 14 14 14 14 13 11 8 3 358 349 337 324 315 311 303 294 289 285 281 277 275 271 268 267 265 262 259 256 253 250 246 244 241 237 232 228 225 222 217 215 217 220 219 218 219 221 222 223 223 221 219
22 11 13 22 29 28 21 21 24 24 23 23 20 15 16 20 21 19 18 15 13 13 13 10 5 4 6 9 11 12 14 15 13 12 12 12 12 12 13 11 9 7 5 3 355 338 320 313 308 299 293 290 286 282 279 275 271 269 267 262 259 256 254 251 248 244 240 237 233 228 225 222 219 216 216 218 220 219 218 219 221 223 222 221 219
38 31 23 22 29 35 32 26 23 21 19 20 19 19 21 20 15 14 16 14 12 13 12 9 7 6 7 9 11 12 13 12 9 8 9 10 10 11 10 9 8 8 8 6 2 352 336 324 317 308 300 296 293 288 284 282 278 274 270 267 264 260 257 254 251 246 240 235 232 230 226 223 220 218 216 217 220 222 219 217 219 222 222 220 217
39 35 36 36 36 37 34 28 22 18 22 25 22 21 22 18 9 10 13 11 11 12 8 3 5 9 9 10 12 12 12 9 6 6 8 8 9 9 8 7 7 7 7 6 4 2 356 347 336 324 310 301 296 291 287 286 283 278 273 270 266 262 258 254 251 248 241 233 229 228 226 222 220 219 218 216 219 222 220 216 217 220 221 219 216
39 35 35 37 36 32 31 30 27 25 28 28 20 16 18 16 9 10 11 10 11 13 8 2 5 10 10 10 12 12 11 9 8 8 8 7 7 7 7 6 6 6 6 6 5 5 4 358 350 340 327 312 304 301 298 295 289 281 274 270 264 260 257 254 250 247 242 234 228 226 224 221 220 220 219 217 218 220 218 215 216 219 219 218 216
43 41 36 35 35 33 30 30 30 29 28 26 18 13 15 15 12 12 13 13 15 14 9 5 7 10 10 10 10 12 12 11 11 11 10 8 7 7 6 5 5 6 6 7 6 5 4 2 358 352 343 331 322 319 317 310 297 281 272 266 262 261 261 258 252 247 242 236 230 226 223 221 220 219 216 215 217 218 216 213 215 218 218 216 214
45 44 40 36 35 34 33 33 34 32 27 24 23 21 18 17 16 14 14 16 18 15 8 5 7 9 9 8 9 11 13 12 11 12 12 10 9 8 7 6 5 5 7 7 6 4 4 4 3 0 353 345 340 338 334 326 311 289 273 266 264 262 261 258 252 244 238 236 231 226 222 221 220 219 216 215 216 217 215 213 214 216 216 214 211
45 43 41 39 35 33 32 33 36 36 32 30 31 30 26 22 21 18 15 15 16 12 5 4 6 8 8 8 10 12 13 12 12 13 13 13 11 10 9 7 6 5 7 7 6 5 4 4 6 7 4 359 357 355 349 340 324 302 282 270 266 259 250 248 250 246 238 233 228 223 220 219 219 220 219 217 216 215 215 213 212 214 216 214 210
50 46 47 48 45 37 33 31 32 33 32 28 28 29 28 24 20 19 18 16 14 11 8 7 9 10 9 9 11 13 13 13 14 15 14 14 13 12 11 10 7 6 7 7 6 5 5 5 6 9 10 9 9 6 359 349 335 319 300 278 265 255 244 240 243 241 232 223 219 218 216 214 214 217 218 217 215 215 214 212 211 212 214 213 211
62 59 56 55 51 45 40 37 33 32 33 28 23 23 25 22 18 20 22 19 14 13 14 12 11 12 12 10 12 13 14 14 15 15 15 14 14 13 12 12 10 8 8 8 7 6 6 5 5 7 11 15 15 13 6 358 347 334 316 287 265 257 250 244 239 231 221 213 210 211 212 210 209 213 214 212 212 214 214 212 212 212 211 210 210
67 65 61 57 54 48 44 40 35 33 34 32 24 21 23 22 17 17 21 21 17 16 17 16 14 13 13 11 11 13 14 15 16 16 15 14 14 14 14 14 12 11 11 10 8 7 7 6 5 6 10 15 18 16 11 5 360 352 335 302 269 257 254 251 245 233 221 211 207 207 209 206 204 207 210 210 211 215 215 212 211 212 211 209 209
68 64 59 55 51 46 42 39 34 30 30 29 25 20 21 21 18 16 18 20 18 16 16 16 15 15 15 14 14 14 15 16 16 17 16 15 15 15 15 15 15 14 13 12 9 8 8 8 6 5 8 14 19 18 14 10 6 2 351 326 280 259 255 253 245 232 223 216 208 206 208 206 202 203 208 211 212 215 215 211 208 208 209 209 207
Height
1506 1504 1503 1502 1501 1501 1501 1500 1500 1499 1499 1500 1499 1499 1500 1499 1499 1498 1497 1498 1499 1498 1499 1500 1502 1503 1505 1505 1506 1508 1511 1513 1513 1514 1514 1515 1515 1515 1515 1516 1516 1516 1516 1515 1515 1516 1517 1518 1519 1519 1518 1518 1518 1518 1517 1517 1516 1516 1515 1514 1514 1513 1513 1512 1510 1508 1508 1509 1509 1509 1508 1508 1507 1506 1506 1505 1505 1505 1504 1504 1504 1504 1504 1505 1505
1506 1505 1504 1502 1501 1500 1499 1499 1498 1498 1497 1497 1497 1496 1496 1496 1496 1495 1495 1496 1496 1496 1497 1499 1500 1502 1502 1502 1503 1505 1507 1509 1509 1510 1510 1511 1512 1512 1512 1513 1513 1513 1512 1512 1513 1514 1514 1514 1515 1516 1515 1514 1514 1514 1514 1514 1514 1513 1513 1512 1511 1511 1510 1509 1508 1507 1506 1506 1506 1506 1506 1505 1505 1504 1504 1503 1503 1502 1502 1502 1502 1502 1502 1503 1504
1506 1505 1504 1503 1501 1500 1499 1498 1497 1496 1496 1495 1494 1493 1493 1492 1492 1492 1493 1493 1493 1494 1495 1496 1498 1499 1499 1499 1499 1501 1505 1506 1506 1506 1506 1507 1508 1508 1509 1509 1510 1509 1509 1509 1510 1511 1512 1511 1511 1511 1511 1510 1510 1510 1510 1510 1510 1510 1509 1509 1508 1507 1507 1506 1506 1505 1504 1504 1504 1504 1504 1503 1502 1502 1501 1501 1501 1500 1500 1500 1500 1499 1499 1500 1501
1506 1505 1504 1502 1501 1500 1499 1498 1497 1495 1494 1494 1492 1491 1490 1490 1490 1490 1490 1491 1491 1492 1493 1493 1494 1495 1496 1497 1496 1498 1501 1503 1503 1503 1503 1504 1505 1505 1506 1506 1506 1506 1506 1506 1507 1508 1509 1509 1508 1508 1507 1506 1506 1507 1507 1507 1507 1507 1506 1506 1505 1504 1504 1503 1503 1502 1501 1501 1501 1501 1501 1501 1500 1499 1499 1499 1498 1498 1498 1498 1497 1496 1497 1497 1498
1506 1504 1503 1502 1500 1499 1498 1497 1496 1495 1494 1493 1491 1490 1489 1488 1488 1487 1488 1488 1489 1490 1490 1491 1492 1492 1494 1495 1496 1497 1498 1499 1499 1499 1500 1500 1501 1501 1502 1502 1502 1502 1502 1503 1504 1504 1505 1505 1505 1505 1504 1503 1503 1503 1504 1505 1505 1504 1504 1503 1502 1502 1501 1500 1500 1499 1499 1498 1499 1499 1498 1498 1498 1497 1497 1496 1496 1496 1496 1495 1495 1495 1495 1495 1495
1506 1504 1503 1502 1500 1499 1498 1496 1495 1494 1493 1492 1490 1489 1488 1487 1486 1486 1486 1486 1487 1487 1488 1489 1489 1491 1493 1494 1495 1496 1495 1494 1494 1495 1496 1496 1496 1497 1498 1498 1498 1498 1498 1499 1500 1501 1501 1501 1501 1502 1501 1499 1499 1500 1501 1501 1501 1501 1501 1500 1500 1499 1498 1498 1497 1497 1496 1496 1496 1496 1495 1495 1495 1495 1494 1494 1494 1494 1493 1493 1492 1492 1493 1493 1493
1505 1503 1502 1501 1500 1499 1497 1496 1494 1493 1492 1491 1490 1488 1487 1486 1485 1484 1484 1484 1484 1485 1486 1487 1486 1488 1489 1490 1491 1492 1491 1490 1491 1491 1491 1492 1493 1494 1494 1494 1494 1493 1494 1494 1495 1496 1496 1497 1497 1498 1497 1495 1495 1496 1497 1498 1498 1497 1497 1497 1497 1496 1496 1495 1495 1494 1493 1493 1493 1493 1493 1492 1493 1492 1492 1492 1491 1491 1490 1490 1490 1490 1491 1491 1490
1504 1502 1501 1499 1498 1497 1496 1495 1494 1492 1491 1490 1489 1487 1486 1484 1483 1483 1482 1482 1482 1482 1483 1483 1483 1484 1485 1485 1486 1487 1488 1488 1489 1489 1489 1489 1489 1489 1489 1489 1489 1489 1489 1490 1490 1491 1491 1492 1493 1493 1492 1491 1491 1492 1493 1494 1494 1494 1494 1494 1494 1494 1493 1493 1492 1491 1491 1490 1490 1490 1490 1490 1490 1490 1490 1489 1489 1489 1488 1488 1488 1488 1488 1488 1487
1503 1502 1500 1498 1496 1495 1494 1493 1492 1491 1489 1488 1487 1485 1484 1483 1482 1481 1480 1480 1480 1480 1480 1480 1480 1481 1482 1482 1483 1484 1485 1485 1486 1487 1487 1486 1485 1484 1484 1484 1484 1484 1484 1484 1485 1486 1486 1487 1488 1487 1487 1486 1486 1487 1488 1489 1490 1490 1490 1491 1491 1491 1491 1490 1490 1489 1489 1488 1487 1487 1487 1487 1487 1487 1487 1487 1487 1487 1487 1486 1485 1485 1485 1484 1485
1503 1501 1500 1498 1496 1494 1492 1491 1489 1489 1487 1486 1485 1484 1483 1482 1481 1480 1479 1479 1478 1478 1478 1477 1478 1478 1479 1479 1480 1480 1480 1480 1481 1483 1483 1482 1481 1480 1479 1479 1479 1478 1478 1478 1479 1480 1481 1481 1482 1481 1481 1481 1480 1481 1482 1483 1484 1485 1485 1486 1487 1487 1487 1487 1486 1486 1486 1485 1484 1485 1484 1484 1484 1484 1484 1484 1484 1484 1484 1484 1483 1483 1482 1482 1482
1501 1500 1499 1497 1496 1494 1492 1490 1489 1488 1486 1485 1484 1483 1482 1481 1480 1479 1478 1478 1477 1477 1476 1476 1476 1476 1476 1476 1475 1475 1474 1475 1475 1476 1477 1476 1476 1475 1474 1474 1473 1473 1473 1473 1473 1474 1474 1475 1475 1475 1475 1474 1475 1475 1476 1476 1477 1478 1479 1480 1481 1482 1483 1483 1482 1483 1482 1481 1481 1481 1480 1480 1481 1481 1481 1482 1481 1481 1481 1481 1481 1481 1481 1480 1479
1500 1499 1498 1496 1495 1493 1492 1490 1488 1487 1486 1485 1483 1482 1481 1480 1479 1478 1477 1477 1476 1475 1475 1474 1473 1473 1473 1472 1471 1470 1470 1470 1470 1470 1470 1470 1470 1469 1469 1468 1468 1468 1468 1467 1467 1468 1468 1469 1469 1469 1469 1469 1470 1470 1470 1471 1471 1471 1472 1473 1474 1475 1476 1477 1477 1478 1478 1478 1477 1477 1477 1477 1477 1478 1478 1479 1478 1478 1478 1478 1478 1479 1479 1478 1477
1499 1497 1496 1495 1493 1492 1490 1489 1487 1486 1485 1484 1483 1481 1479 1478 1477 1476 1475 1474 1474 1473 1472 1471 1470 1470 1469 1469 1468 1467 1467 1466 1465 1466 1466 1465 1465 1464 1463 1463 1463 1463 1463 1462 1462 1462 1463 1463 1463 1463 1463 1464 1465 1465 1465 1466 1466 1466 1466 1467 1467 1468 1469 1471 1471 1472 1473 1473 1473 1473 1474 1474 1474 1474 1475 1475 1475 1475 1475 1475 1476 1476 1476 1476 1475
1497 1495 1494 1493 1492 1490 1489 1487 1486 1484 1483 1482 1481 1479 1477 1476 1475 1474 1473 1472 1471 1470 1470 1469 1468 1467 1466 1465 1464 1463 1462 1462 1461 1461 1461 1461 1461 1460 1459 1458 1458 1457 1457 1457 1457 1456 1457 1457 1457 1457 1458 1459 1459 1460 1460 1461 1461 1461 1461 1461 1461 1461 1462 1464 1465 1466 1467 1468 1467 1467 1469 1471 1470 1470 1471 1472 1472 1473 1472 1472 1473 1473 1473 1473 1472
1494 1493 1491 1491 1490 1489 1487 1486 1484 1482 1480 1479 1478 1477 1476 1474 1473 1472 1471 1470 1469 1468 1467 1466 1465 1464 1463 1462 1461 1460 1459 1457 1457 1457 1456 1456 1456 1455 1454 1453 1452 1451 1451 1451 1451 1450 1450 1451 1451 1451 1452 1452 1453 1454 1455 1456 1456 1456 1456 1456 1456 1456 1456 1457 1458 1459 1461 1461 1461 1462 1464 1466 1466 1466 1468 1468 1469 1470 1469 1469 1470 1470 1470 1470 1469
1492 1490 1489 1488 1487 1486 1485 1484 1482 1481 1479 1478 1476 1476 1475 1473 1472 1471 1470 1469 1468 1467 1466 1464 1463 1462 1461 1459 1458 1456 1455 1454 1453 1452 1451 1451 1452 1451 1450 1448 1447 1446 1445 1445 1445 1444 1445 1445 1445 1445 1446 1447 1447 1448 1449 1450 1450 1450 1450 1451 1452 1452 1452 1452 1453 1454 1455 1456 1456 1457 1459 1460 1461 1462 1463 1464 1465 1466 1466 1466 1466 1466 1466 1466 1466
1489 1487 1486 1485 1484 1483 1482 1481 1480 1479 1478 1477 1475 1474 1473 1472 1472 1471 1469 1468 1467 1466 1464 1463 1462 1461 1459 1458 1456 1454 1453 1452 1450 1449 1447 1447 1447 1447 1446 1444 1443 1441 1441 1440 1440 1440 1440 1441 1441 1442 1442 1443 1443 1444 1444 1444 1444 1444 1445 1446 1447 1447 1447 1449 1450 1450 1450 1451 1451 1452 1454 1455 1456 1457 1458 1458 1459 1461 1462 1461 1462 1463 1463 1463 1462
1486 1484 1483 1482 1481 1480 1479 1478 1477 1476 1475 1474 1473 1472 1471 1470 1470 1469 1467 1466 1465 1463 1462 1461 1460 1458 1457 1456 1454 1452 1450 1449 1448 1447 1445 1444 1444 1443 1442 1441 1439 1438 1437 1437 1437 1437 1437 1437 1437 1437 1437 1438 1439 1439 1439 1439 1439 1440 1440 1441 1441 1441 1442 1444 1445 1445 1446 1446 1446 1447 1448 1450 1451 1451 1452 1452 1454 1456 1456 1455 1458 1460 1460 1459 1459
1483 1481 1479 1478 1477 1477 1476 1475 1474 1473 1473 1472 1471 1470 1469 1468 1467 1466 1465 1464 1462 1461 1460 1458 1457 1456 1454 1452 1451 1449 1447 1446 1445 1444 1442 1441 1440 1439 1439 1437 1435 1434 1434 1434 1433 1433 1433 1433 1433 1433 1433 1433 1434 1434 1434 1434 1434 1435 1436 1436 1436 1436 1438 1440 1441 1441 1441 1441 1441 1441 1442 1444 1445 1445 1445 1446 1447 1449 1450 1450 1453 1455 1455 1455 1457
1479 1477 1475 1474 1474 1473 1473 1472 1472 1471 1470 1469 1468 1467 1466 1465 1465 1463 1462 1461 1460 1459 1457 1455 1454 1452 1451 1449 1447 1446 1444 1442 1441 1440 1439 1438 1437 1436 1435 1433 1432 1431 1431 1430 1430 1430 1429 1429 1429 1429 1429 1429 1429 1429 1429 1429 1430 1430 1431 1431 1431 1432 1434 1435 1435 1436 1436 1436 1436 1437 1437 1438 1439 1439 1439 1439 1440 1441 1443 1444 1447 1449 1449 1451 1453
1475 1473 1472 1471 1471 1470 1470 1470 1469 1468 1467 1466 1465 1464 1463 1463 1462 1461 1460 1459 1457 1456 1454 1453 1450 1448 1447 1445 1443 1442 1440 1438 1437 1436 1435 1434 1433 1432 1431 1430 1429 1428 1427 1427 1426 1425 1425 1425 1425 1425 1425 1424 1424 1424 1424 1425 1425 1426 1426 1426 1427 1428 1430 1430 1430 1431 1431 1430 1431 1432 1433 1433 1434 1434 1434 1434 1434 1435 1436 1438 1440 1441 1443 1445 1448
1471 1470 1469 1469 1468 1467 1467 1466 1465 1465 1464 1463 1462 1461 1460 1460 1459 1458 1457 1456 1454 1453 1451 1449 1447 1445 1443 1442 1440 1438 1436 1434 1433 1432 1431 1430 1429 1428 1427 1426 1426 1425 1424 1423 1422 1422 1421 1421 1421 1421 1421 1420 1420 1419 1419 1420 1420 1420 1421 1422 1423 1424 1426 1426 1426 1426 1426 1426 1426 1427 1427 1428 1429 1429 1429 1430 1431 1431 1432 1432 1434 1435 1436 1439 1442
1468 1468 1467 1467 1466 1465 1464 1463 1462 1462 1461 1460 1459 1458 1458 1457 1456 1455 1454 1453 1451 1449 1448 1446 1444 1442 1440 1438 1436 1435 1433 1431 1430 1428 1427 1426 1425 1424 1423 1423 1422 1422 1420 1419 1418 1418 1417 1417 1417 1417 1416 1415 1415 1414 1414 1414 1415 1415 1416 1417 1418 1419 1420 1421 1422 1422 1422 1422 1422 1422 1422 1423 1424 1424 1425 1426 1427 1428 1429 1429 1430 1430 1431 1433 1435
1466 1465 1464 1464 1463 1463 1462 1461 1460 1459 1458 1458 1457 1456 1455 1454 1453 1452 1451 1450 1448 1446 1445 1443 1441 1439 1437 1436 1434 1432 1430 1429 1427 1426 1424 1423 1421 1421 1420 1419 1418 1418 1416 1415 1414 1413 1412 1411 1411 1410 1409 1409 1409 1409 1408 1408 1408 1409 1410 1411 1412 1413 1414 1415 1416 1416 1416 1417 1417 1417 1417 1418 1418 1419 1420 1422 1423 1424 1425 1425 1426 1426 1427 1428 1430
1464 1464 1463 1462 1461 1461 1459 1459 1458 1457 1456 1456 1455 1454 1453 1452 1451 1450 1449 1447 1445 1443 1442 1440 1438 1437 1435 1433 1431 1430 1428 1426 1425 1423 1422 1420 1418 1417 1416 1415 1415 1413 1412 1411 1410 1408 1407 1406 1405 1404 1403 1403 1403 1402 1402 1402 1402 1403 1404 1405 1406 1407 1407 1409 1410 1411 1410 1410 1411 1412 1412 1413 1414 1415 1416 1418 1419 1419 1420 1421 1422 1422 1423 1424 1426
1463 1462 1462 1461 1460 1458 1457 1457 1456 1455 1454 1454 1452 1451 1450 1450 1449 1447 1446 1444 1442 1440 1439 1437 1436 1434 1432 1430 1428 1426 1425 1423 1421 1420 1419 1417 1416 1414 1412 1411 1410 1409 1407 1406 1405 1403 1402 1401 1399 1398 1397 1397 1396 1396 1396 1396 1396 1396 1396 1398 1399 1399 1400 1401 1402 1403 1403 1404 1405 1406 1406 1408 1410 1411 1412 1413 1413 1414 1416 1417 1418 1419 1419 1421 1422
1462 1461 1460 1459 1458 1457 1456 1455 1454 1453 1452 1452 1451 1450 1449 1448 1446 1445 1443 1442 1440 1438 1436 1435 1433 1431 1429 1427 1425 1423 1421 1420 1419 1418 1416 1414 1412 1410 1409 1408 1406 1405 1403 1402 1401 1399 1398 1396 1395 1394 1392 1391 1391 1391 1390 1390 1389 1389 1390 1391 1391 1391 1392 1393 1394 1395 1396 1397 1399 1400 1401 1403 1405 1405 1406 1407 1408 1409 1411 1412 1413 1414 1416 1417 1418
1461 1460 1459 1458 1457 1456 1454 1453 1452 1451 1450 1449 1449 1447 1446 1445 1444 1443 1441 1439 1437 1436 1434 1432 1430 1429 1426 1424 1423 1421 1419 1418 1416 1415 1412 1410 1408 1406 1405 1404 1403 1401 1400 1398 1397 1395 1393 1391 1390 1389 1388 1387 1386 1386 1385 1385 1384 1384 1384 1385 1385 1385 1386 1387 1388 1389 1390 1391 1393 1394 1396 1397 1398 1399 1400 1401 1402 1404 1406 1407 1408 1410 1412 1413 1413
1460 1459 1458 1457 1455 1454 1452 1451 1449 1448 1448 1447 1446 1445 1444 1443 1442 1441 1439 1437 1436 1434 1432 1430 1428 1426 1424 1422 1421 1418 1416 1414 1413 1411 1408 1406 1405 1403 1401 1399 1398 1396 1395 1394 1392 1389 1387 1386 1385 1384 1383 1383 1382 1381 1381 1380 1380 1380 1379 1379 1379 1380 1381 1381 1381 1382 1383 1384 1386 1387 1389 1390 1391 1392 1393 1394 1395 1398 1400 1402 1403 1404 1407 1408 1408
1459 1458 1457 1455 1454 1452 1450 1449 1447 1446 1445 1445 1444 1443 1442 1441 1440 1438 1437 1435 1434 1432 1430 1428 1426 1424 1422 1420 1418 1416 1413 1410 1408 1406 1404 1402 1400 1398 1396 1394 1392 1391 1389 1388 1387 1384 1382 1380 1380 1379 1378 1377 1376 1376 1375 1375 1375 1375 1374 1374 1375 1375 1375 1375 1376 1377 1378 1378 1379 1380 1382 1383 1384 1385 1386 1388 1389 1392 1394 1396 1397 1399 1401 1402 1402
1458 1456 1455 1454 1452 1450 1448 1447 1446 1445 1444 1443 1442 1441 1440 1439 1438 1436 1435 1434 1432 1430 1428 1426 1424 1422 1420 1418 1415 1413 1410 1407 1404 1402 1399 1397 1395 1393 1391 1389 1387 1386 1385 1383 1381 1379 1377 1376 1374 1373 1373 1372 1371 1370 1370 1369 1369 1369 1369 1369 1369 1369 1369 1370 1370 1371 1372 1372 1373 1374 1375 1376 1377 1378 1380 1382 1384 1386 1388 1390 1392 1393 1395 1396 1397
1456 1454 1453 1452 1450 1448 1447 1446 1445 1444 1443 1442 1441 1440 1439 1438 1437 1436 1435 1433 1431 1430 1427 1425 1423 1421 1419 1416 1413 1410 1407 1404 1401 1398 1396 1393 1391 1389 1387 1385 1383 1381 1380 1378 1376 1373 1372 1371 1369 1368 1368 1367 1365 1365 1364 1364 1363 1363 1363 1363 1363 1363 1364 1364 1365 1366 1366 1366 1367 1368 1368 1370 1371 1372 1374 1376 1378 1380 1382 1384 1385 1387 1389 1390 1391
1454 1453 1451 1450 1448 1447 1446 1445 1444 1443 1442 1441 1440 1439 1439 1438 1438 1437 1435 1433 1431 1428 1426 1424 1422 1419 1417 1414 1411 1408 1405 1402 1399 1396 1393 1390 1388 1385 1383 1380 1378 1377 1375 1373 1370 1368 1367 1366 1364 1363 1363 1362 1361 1360 1359 1358 1358 1358 1357 1357 1357 1357 1358 1359 1359 1360 1360 1361 1361 1362 1363 1364 1365 1367 1369 1371 1373 1374 1376 1377 1379 1381 1383 1384 1386
1452 1451 1450 1448 1448 1447 1446 1445 1445 1443 1442 1441 1440 1439 1439 1439 1437 1436 1435 1433 1430 1427 1425 1423 1421 1418 1416 1413 1410 1407 1404 1400 1397 1394 1391 1388 1385 1382 1379 1376 1374 1372 1371 1369 1367 1365 1363 1362 1360 1359 1358 1357 1356 1355 1354 1353 1353 1352 1352 1352 1352 1352 1352 1353 1354 1354 1354 1355 1356 1357 1358 1359 1360 1362 1363 1365 1367 1369 1370 1371 1373 1375 1376 1378 1380
1451 1450 1449 1448 1447 1447 1446 1446 1445 1444 1443 1441 1441 1440 1440 1438 1436 1435 1433 1431 1429 1427 1425 1423 1421 1418 1415 1412 1409 1406 1403 1399 1396 1393 1390 1386 1383 1380 1377 1374 1371 1370 1368 1366 1364 1362 1360 1358 1356 1355 1354 1352 1351 1351 1350 1349 1348 1348 1347 1347 1347 1347 1347 1348 1348 1349 1350 1350 1350 1351 1353 1354 1355 1357 1358 1360 1361 1363 1364 1365 1367 1369 1370 1372 1375
1451 1451 1450 1449 1448 1448 1447 1446 1445 1444 1443 1441 1441 1440 1439 1437 1436 1434 1432 1431 1429 1427 1424 1422 1420 1417 1414 1411 1409 1406 1402 1399 1396 1392 1389 1386 1382 1379 1376 1373 1370 1368 1366 1364 1362 1359 1357 1354 1353 1351 1350 1348 1347 1346 1345 1344 1343 1343 1342 1342 1342 1342 1342 1342 1343 1344 1344 1345 1345 1346 1348 1349 1350 1351 1353 1354 1356 1357 1359 1360 1362 1363 1365 1367 1369
1452 1451 1450 1449 1448 1447 1447 1446 1445 1444 1442 1441 1440 1439 1438 1436 1435 1433 1432 1430 1429 1426 1424 1421 1419 1416 1413 1411 1408 1405 1402 1398 1395 1391 1388 1385 1381 1378 1375 1372 1369 1366 1364 1362 1359 1356 1353 1351 1349 1347 1345 1343 1342 1341 1340 1339 1338 1337 1337 1337 1337 1336 1336 1337 1337 1338 1339 1339 1340 1341 1342 1344 1345 1346 1348 1349 1350 1352 1353 1355 1357 1358 1360 1363 1365
1452 1451 1450 1449 1448 1447 1447 1446 1445 1443 1442 1441 1440 1438 1437 1435 1434 1432 1431 1430 1427 1425 1424 1421 1418 1415 1413 1410 1407 1404 1401 1397 1394 1390 1387 1384 1380 1377 1374 1371 1368 1365 1362 1359 1356 1353 1350 1347 1344 1342 1340 1338 1337 1335 1334 1333 1332 1331 1331 1331 1330 1330 1331 1331 1331 1332 1333 1333 1334 1335 1336 1338 1339 1341 1342 1344 1345 1346 1348 1350 1352 1353 1355 1357 1359
1453 1451 1450 1449 1448 1447 1447 1446 1445 1443 1442 1440 1439 1438 1436 1435 1434 1432 1431 1429 1427 1425 1423 1420 1418 1416 1413 1410 1406 1403 1399 1395 1392 1388 1385 1382 1379 1376 1373 1370 1366 1363 1359 1356 1353 1350 1347 1344 1341 1338 1336 1334 1332 1330 1328 1327 1326 1325 1324 1324 1323 1323 1324 1324 1324 1325 1326 1327 1328 1329 1331 1332 1333 1335 1337 1338 1340 1341 1343 1345 1346 1348 1350 1351 1353
1454 1452 1450 1449 1448 1448 1447 1446 1444 1443 1442 1440 1439 1438 1437 1435 1434 1432 1430 1429 1426 1424 1422 1420 1418 1416 1413 1409 1406 1402 1398 1394 1391 1388 1385 1382 1378 1375 1372 1368 1365 1361 1357 1353 1350 1346 1343 1340 1337 1334 1332 1329 1327 1324 1322 1321 1320 1318 1317 1317 1316 1315 1316 1316 1316 1317 1318 1319 1321 1323 1324 1325 1327 1330 1331 1333 1334 1336 1338 1340 1342 1343 1345 1347 1348
1454 1453 1451 1449 1449 1448 1447 1446 1444 1443 1442 1440 1439 1438 1437 1435 1433 1432 1430 1428 1426 1424 1422 1420 1418 1415 1412 1409 1405 1401 1397 1394 1391 1388 1385 1381 1378 1375 1371 1367 1363 1359 1355 1351 1347 1343 1340 1336 1333 1330 1327 1324 1321 1319 1317 1315 1313 1311 1310 1309 1309 1308 1308 1308 1308 1309 1310 1312 1314 1315 1317 1319 1321 1323 1325 1327 1329 1331 1333 1335 1337 1339 1340 1342 1344
1454 1453 1452 1450 1449 1448 1447 1446 1445 1443 1442 1441 1440 1438 1437 1435 1433 1432 1430 1428 1426 1424 1422 1419 1417 1415 1411 1408 1405 1401 1398 1395 1392 1389 1385 1382 1378 1374 1370 1367 1363 1358 1353 1349 1344 1340 1336 1332 1328 1325 1322 1319 1316 1314 1311 1309 1307 1305 1303 1302 1301 1300 1300 1300 1300 1301 1302 1304 1306 1307 1310 1312 1315 1317 1320 1322 1324 1326 1327 1329 1332 1334 1336 1337 1339
1454 1453 1452 1451 1449 1448 1447 1446 1445 1444 1443 1441 1440 1438 1436 1435 1434 1432 1430 1428 1426 1423 1421 1419 1417 1414 1411 1407 1404 1401 1398 1395 1392 1388 1385 1381 1377 1373 1369 1366 1361 1357 1352 1348 1343 1338 1333 1328 1324 1321 1318 1315 1312 1309 1306 1303 1301 1298 1296 1294 1293 1292 1292 1292 1293 1293 1294 1296 1298 1300 1303 1306 1309 1311 1314 1317 1319 1321 1322 1324 1327 1329 1331 1333 1335
1454 1454 1453 1451 1450 1449 1448 1447 1446 1445 1443 1441 1440 1439 1437 1436 1435 1432 1430 1428 1426 1423 1421 1419 1416 1413 1410 1407 1404 1401 1398 1395 1392 1388 1384 1380 1377 1373 1369 1365 1361 1356 1351 1346 1341 1336 1331 1326 1321 1316 1313 1310 1307 1304 1301 1298 1295 1292 1290 1288 1287 1286 1285 1285 1286 1287 1287 1289 1291 1293 1296 1299 1302 1306 1309 1311 1314 1315 1317 1319 1321 1324 1326 1328 1330
1455 1455 1454 1452 1451 1450 1449 1448 1446 1445 1443 1442 1441 1440 1438 1437 1435 1433 1430 1428 1426 1423 1421 1419 1416 1413 1410 1407 1404 1401 1398 1395 1391 1388 1384 1380 1376 1373 1369 1364 1360 1355 1350 1345 1340 1335 1330 1324 1318 1313 1308 1305 1302 1299 1296 1293 1290 1287 1284 1282 1281 1279 1278 1278 1279 1280 1281 1283 1284 1287 1290 1293 1296 1299 1303 1305 1308 1310 1312 1314 1317 1319 1321 1323 1325
1456 1455 1454 1453 1452 1451 1450 1448 1447 1445 1444 1443 1442 1440 1439 1437 1435 1433 1431 1428 1426 1424 1422 1419 1416 1413 1410 1408 1405 1401 1398 1394 1391 1387 1384 1380 1376 1372 1368 1364 1359 1354 1349 1344 1339 1334 1328 1323 1316 1310 1305 1301 1297 1294 1291 1288 1284 1282 1279 1277 1275 1274 1273 1274 1274 1274 1275 1277 1279 1281 1284 1287 1290 1293 1297 1300 1302 1305 1308 1310 1312 1314 1316 1318 1321
1456 1455 1455 1454 1453 1452 1450 1449 1447 1446 1445 1443 1442 1440 1439 1437 1435 1433 1431 1429 1426 1424 1422 1419 1417 1414 1411 1408 1405 1401 1398 1395 1391 1387 1383 1380 1376 1372 1367 1363 1359 1354 1349 1343 1338 1333 1328 1322 1316 1309 1304 1298 1294 1290 1287 1284 1280 1277 1274 1272 1271 1270 1269 1270 1270 1270 1271 1272 1274 1276 1278 1281 1285 1288 1292 1295 1298 1301 1303 1305 1307 1310 1312 1314 1317
1457 1456 1455 1454 1453 1453 1451 1450 1448 1447 1445 1444 1442 1441 1439 1438 1436 1434 1432 1429 1427 1425 1422 1420 1417 1414 1411 1408 1405 1401 1398 1395 1391 1387 1383 1380 1376 1371 1367 1362 1358 1353 1348 1343 1338 1333 1327 1321 1315 1309 1303 1296 1291 1287 1283 1279 1276 1272 1270 1268 1267 1266 1266 1266 1266 1266 1267 1268 1270 1272 1275 1277 1280 1284 1287 1290 1294 1296 1298 1300 1303 1305 1308 1310 1313
1458 1457 1456 1455 1454 1453 1452 1451 1449 1448 1446 1445 1444 1442 1440 1438 1436 1434 1432 1430 1427 1425 1422 1420 1417 1414 1411 1408 1405 1401 1398 1394 1391 1387 1383 1379 1375 1371 1366 1362 1357 1353 1347 1342 1337 1331 1325 1320 1314 1308 1302 1295 1288 1284 1280 1276 1272 1269 1267 1265 1263 1263 1263 1262 1263 1263 1264 1265 1267 1269 1272 1274 1277 1280 1283 1286 1289 1292 1294 1296 1299 1302 1304 1307 1310
1458 1458 1457 1456 1455 1454 1452 1451 1450 1448 1447 1445 1444 1442 1440 1438 1437 1434 1432 1430 1427 1425 1422 1420 1417 1414 1411 1408 1405 1401 1398 1394 1391 1387 1383 1379 1375 1371 1366 1361 1357 1352 1347 1341 1336 1331 1325 1319 1313 1307 1301 1293 1286 1281 1278 1274 1270 1267 1264 1262 1261 1260 1260 1260 1260 1260 1262 1263 1265 1267 1269 1272 1274 1277 1280 1282 1285 1288 1290 1293 1296 1299 1301 1304 1306
1460 1459 1458 1457 1456 1454 1453 1452 1450 1449 1447 1446 1444 1443 1441 1439 1437 1435 1432 1430 1427 1425 1422 1420 1417 1415 1411 1408 1405 1402 1398 1395 1391 1387 1383 1379 1375 1370 1366 1361 1356 1351 1346 1341 1336 1331 1325 1318 1312 1307 1300 1293 1286 1281 1276 1272 1268 1265 1262 1260 1259 1258 1258 1257 1257 1258 1259 1261 1263 1265 1267 1269 1272 1274 1277 1279 1282 1284 1287 1290 1293 1296 1298 1301 1303